| time (UTC) | temp F | wind direction | speed MPH | gust MPH | rain 1hr in | rain 24hr in | rain mn in | humidity % | barometer mb |
| 20260503033029 | 55 | 130 | 1.0 | 5.0 | 0.00 | 0.05 | 0.05 | 95 | 1009.8 |
| 20260503031528 | 55 | 132 | 1.0 | 4.0 | 0.00 | 0.05 | 0.05 | 95 | 1009.9 |
| 20260503030031 | 55 | 141 | 1.0 | 8.0 | 0.00 | 0.05 | 0.05 | 95 | 1010.0 |
| 20260503024526 | 55 | 136 | 3.0 | 8.0 | 0.00 | 0.05 | 0.05 | 95 | 1009.8 |
| 20260503023026 | 55 | 121 | 2.0 | 6.0 | 0.00 | 0.05 | 0.05 | 95 | 1009.6 |
| 20260503021525 | 55 | 87 | 4.0 | 7.0 | 0.00 | 0.05 | 0.05 | 94 | 1009.7 |
| 20260503020033 | 55 | 92 | 3.0 | 6.0 | 0.00 | 0.05 | 0.05 | 94 | 1009.8 |
| 20260503014523 | 55 | 122 | 3.0 | 6.0 | 0.00 | 0.05 | 0.05 | 94 | 1010.1 |
| 20260503013023 | 55 | 68 | 4.0 | 8.0 | 0.00 | 0.05 | 0.05 | 94 | 1009.7 |
| 20260503011521 | 55 | 63 | 3.0 | 8.0 | 0.01 | 0.05 | 0.05 | 93 | 1009.8 |
| 20260503010020 | 55 | 59 | 2.0 | 9.0 | 0.02 | 0.05 | 0.05 | 93 | 1010.1 |
| 20260503004518 | 55 | 63 | 2.0 | 7.0 | 0.03 | 0.05 | 0.05 | 93 | 1010.4 |
| 20260503003028 | 55 | 32 | 6.0 | 8.0 | 0.03 | 0.04 | 0.04 | 93 | 1010.4 |
| 20260503001513 | 56 | 32 | 3.0 | 6.0 | 0.04 | 0.04 | 0.04 | 93 | 1011.2 |
| 20260503000016 | 56 | 276 | 1.0 | 3.0 | 0.02 | 0.02 | 0.02 | 92 | 1011.9 |
| 20260502234510 | 56 | 275 | 0.0 | 4.0 | 0.02 | 0.02 | 0.02 | 91 | 1012.4 |
| 20260502233007 | 57 | 265 | 2.0 | 7.0 | 0.01 | 0.01 | 0.01 | 90 | 1012.6 |
| 20260502231507 | 56 | 208 | 6.0 | 19.0 | 0.00 | 0.00 | 0.00 | 91 | 1012.9 |
| 20260502230005 | 56 | 57 | 3.0 | 7.0 | 0.00 | 0.00 | 0.00 | 91 | 1011.7 |
| 20260502224503 | 56 | 72 | 3.0 | 7.0 | 0.00 | 0.00 | 0.00 | 91 | 1012.0 |
| 20260502223002 | 57 | 32 | 2.0 | 6.0 | 0.00 | 0.00 | 0.00 | 90 | 1011.9 |
| 20260502221603 | 56 | 119 | 2.0 | 4.0 | 0.00 | 0.00 | 0.00 | 90 | 1012.4 |
| 20260502220105 | 56 | 115 | 3.0 | 7.0 | 0.00 | 0.00 | 0.00 | 90 | 1012.1 |
| 20260502214614 | 56 | 51 | 3.0 | 8.0 | 0.00 | 0.00 | 0.00 | 90 | 1011.7 |
| 20260502213118 | 56 | 34 | 2.0 | 5.0 | 0.00 | 0.00 | 0.00 | 90 | 1012.0 |
| 20260502211557 | 56 | 28 | 3.0 | 7.0 | 0.00 | 0.00 | 0.00 | 89 | 1012.2 |
| 20260502210052 | 57 | 5 | 3.0 | 6.0 | 0.00 | 0.00 | 0.00 | 88 | 1012.2 |
| 20260502204550 | 57 | 9 | 1.0 | 5.0 | 0.00 | 0.00 | 0.00 | 87 | 1012.4 |
| 20260502203110 | 57 | 13 | 1.0 | 4.0 | 0.00 | 0.00 | 0.00 | 87 | 1012.7 |
| 20260502201546 | 58 | 18 | 2.0 | 5.0 | 0.00 | 0.00 | 0.00 | 85 | 1012.9 |
| 20260502200054 | 58 | 5 | 2.0 | 6.0 | 0.00 | 0.00 | 0.00 | 83 | 1013.0 |
| 20260502194545 | 59 | 355 | 1.0 | 4.0 | 0.00 | 0.00 | 0.00 | 82 | 1013.1 |
| 20260502193046 | 59 | 355 | 2.0 | 5.0 | 0.00 | 0.00 | 0.00 | 81 | 1013.0 |
| 20260502191547 | 60 | 360 | 3.0 | 9.0 | 0.00 | 0.00 | 0.00 | 78 | 1013.0 |
| 20260502190041 | 61 | 355 | 3.0 | 9.0 | 0.00 | 0.00 | 0.00 | 74 | 1012.9 |
| 20260502184540 | 62 | 10 | 3.0 | 7.0 | 0.00 | 0.00 | 0.00 | 68 | 1012.8 |
| 20260502183041 | 63 | 312 | 4.0 | 8.0 | 0.00 | 0.00 | 0.00 | 65 | 1012.7 |
| 20260502181538 | 64 | 332 | 4.0 | 10.0 | 0.00 | 0.00 | 0.00 | 61 | 1012.8 |
| 20260502163040 | 69 | 335 | 3.0 | 9.0 | 0.00 | 0.00 | 0.00 | 54 | 1013.6 |
| 20260502161539 | 70 | 284 | 5.0 | 9.0 | 0.00 | 0.00 | 0.00 | 58 | 1013.7 |
| 20260502151522 | 71 | 294 | 6.0 | 12.0 | 0.00 | 0.00 | 0.00 | 68 | 1014.2 |
| 20260502123009 | 70 | 268 | 6.0 | 12.0 | 0.00 | 0.00 | 0.00 | 67 | 1015.5 |
| 20260502121507 | 70 | 257 | 5.0 | 10.0 | 0.00 | 0.00 | 0.00 | 66 | 1015.4 |
| 20260502114501 | 69 | 217 | 7.0 | 13.0 | 0.00 | 0.00 | 0.00 | 69 | 1015.6 |
| 20260502113131 | 69 | 276 | 5.0 | 11.0 | 0.00 | 0.00 | 0.00 | 70 | 1015.9 |
| 20260502111557 | 68 | 213 | 4.0 | 11.0 | 0.00 | 0.00 | 0.00 | 69 | 1016.0 |
| 20260502110055 | 67 | 234 | 5.0 | 11.0 | 0.00 | 0.00 | 0.00 | 70 | 1016.1 |
| 20260502104554 | 67 | 269 | 7.0 | 12.0 | 0.00 | 0.00 | 0.00 | 69 | 1016.1 |
| 20260502103053 | 67 | 263 | 5.0 | 11.0 | 0.00 | 0.00 | 0.00 | 69 | 1016.1 |
| 20260502101548 | 64 | 254 | 2.0 | 6.0 | 0.00 | 0.00 | 0.00 | 70 | 1016.1 |
| 20260502071530 | 60 | 222 | 2.0 | 6.0 | 0.00 | 0.00 | 0.00 | 59 | 1016.3 |
| 20260502070030 | 60 | 219 | 2.0 | 7.0 | 0.00 | 0.00 | 0.00 | 59 | 1016.5 |
| 20260502064530 | 60 | 190 | 5.0 | 9.0 | 0.00 | 0.00 | 0.00 | 60 | 1016.5 |
| 20260502063024 | 59 | 227 | 3.0 | 8.0 | 0.00 | 0.00 | 0.00 | 60 | 1016.4 |
| 20260502061521 | 58 | 192 | 3.0 | 7.0 | 0.00 | 0.00 | 0.00 | 62 | 1016.3 |
| 20260502060017 | 56 | 185 | 3.0 | 7.0 | 0.00 | 0.00 | 0.00 | 64 | 1016.3 |
| 20260502054511 | 56 | 207 | 3.0 | 7.0 | 0.00 | 0.00 | 0.00 | 63 | 1016.3 |
| 20260502053008 | 54 | 134 | 2.0 | 5.0 | 0.00 | 0.00 | 0.00 | 65 | 1016.0 |
| 20260502051505 | 53 | 139 | 1.0 | 5.0 | 0.00 | 0.00 | 0.00 | 66 | 1016.1 |
| 20260502050002 | 53 | 150 | 1.0 | 5.0 | 0.00 | 0.00 | 0.00 | 67 | 1016.2 |
| 20260502044625 | 53 | 138 | 2.0 | 5.0 | 0.00 | 0.00 | 0.00 | 67 | 1016.2 |
| 20260502043102 | 53 | 140 | 2.0 | 5.0 | 0.00 | 0.00 | 0.00 | 67 | 1016.2 |
| 20260502041554 | 53 | 134 | 2.0 | 5.0 | 0.00 | 0.00 | 0.00 | 66 | 1016.3 |
| 20260502040055 | 54 | 139 | 2.0 | 4.0 | 0.00 | 0.00 | 0.00 | 65 | 1016.3 |
| 20260502034549 | 54 | 137 | 2.0 | 5.0 | 0.00 | 0.00 | 0.00 | 64 | 1016.4 |